| time (UTC) | temp C | wind direction | speed KPH | gust KPH | rain 1hr cm | rain 24hr cm | rain mn cm | humidity % | barometer mb |
| 20260504023007 | 21 | 256 | 41.8 | 66.0 | 0.00 | 0.00 | 0.00 | 43 | 1004.5 |
| 20260504021503 | 22 | 297 | 40.2 | 61.2 | 0.00 | 0.00 | 0.00 | 41 | 1004.0 |
| 20260504020048 | 23 | 298 | 40.2 | 66.0 | 0.00 | 0.00 | 0.00 | 40 | 1003.5 |
| 20260504014542 | 23 | 301 | 43.5 | 61.2 | 0.00 | 0.00 | 0.00 | 39 | 1003.6 |
| 20260504013018 | 24 | 284 | 30.6 | 51.5 | 0.00 | 0.00 | 0.00 | 36 | 1003.9 |
| 20260504011514 | 27 | 332 | 29.0 | 43.5 | 0.00 | 0.00 | 0.00 | 29 | 1003.6 |
| 20260504010057 | 30 | 219 | 6.4 | 22.5 | 0.00 | 0.00 | 0.00 | 15 | 1003.4 |
| 20260504004556 | 30 | 282 | 9.7 | 17.7 | 0.00 | 0.00 | 0.00 | 18 | 1003.2 |
| 20260504003037 | 31 | 291 | 9.7 | 27.4 | 0.00 | 0.00 | 0.00 | 20 | 1002.9 |
| 20260504001547 | 31 | 257 | 9.7 | 24.1 | 0.00 | 0.00 | 0.00 | 22 | 1003.3 |
| 20260504000019 | 30 | 286 | 19.3 | 32.2 | 0.00 | 0.00 | 0.00 | 25 | 1003.1 |
| 20260503234518 | 31 | 299 | 17.7 | 29.0 | 0.00 | 0.00 | 0.00 | 24 | 1003.0 |
| 20260503233100 | 30 | 287 | 24.1 | 37.0 | 0.00 | 0.00 | 0.00 | 26 | 1002.9 |
| 20260503231600 | 30 | 302 | 22.5 | 41.8 | 0.00 | 0.00 | 0.00 | 26 | 1002.6 |
| 20260503230047 | 31 | 283 | 24.1 | 41.8 | 0.00 | 0.00 | 0.00 | 26 | 1002.8 |
| 20260503224545 | 32 | 301 | 19.3 | 33.8 | 0.00 | 0.00 | 0.00 | 23 | 1002.8 |
| 20260503223043 | 33 | 246 | 11.3 | 22.5 | 0.00 | 0.00 | 0.00 | 21 | 1002.9 |
| 20260503221555 | 33 | 270 | 12.9 | 29.0 | 0.00 | 0.00 | 0.00 | 21 | 1003.0 |
| 20260503220042 | 32 | 346 | 12.9 | 33.8 | 0.00 | 0.00 | 0.00 | 22 | 1003.3 |
| 20260503214539 | 35 | 212 | 12.9 | 20.9 | 0.00 | 0.00 | 0.00 | 18 | 1003.4 |
| 20260503213041 | 35 | 225 | 6.4 | 27.4 | 0.00 | 0.00 | 0.00 | 13 | 1003.7 |
| 20260503211538 | 35 | 162 | 17.7 | 40.2 | 0.00 | 0.00 | 0.00 | 13 | 1003.6 |
| 20260503210018 | 35 | 165 | 22.5 | 37.0 | 0.00 | 0.00 | 0.00 | 13 | 1003.7 |
| 20260503204523 | 35 | 189 | 16.1 | 33.8 | 0.00 | 0.00 | 0.00 | 12 | 1003.8 |
| 20260503203100 | 35 | 200 | 27.4 | 35.4 | 0.00 | 0.00 | 0.00 | 11 | 1003.9 |
| 20260503201558 | 35 | 198 | 27.4 | 37.0 | 0.00 | 0.00 | 0.00 | 11 | 1004.2 |
| 20260503200038 | 35 | 173 | 24.1 | 35.4 | 0.00 | 0.00 | 0.00 | 10 | 1004.3 |
| 20260503194540 | 35 | 186 | 19.3 | 35.4 | 0.00 | 0.00 | 0.00 | 11 | 1004.3 |
| 20260503193018 | 35 | 203 | 24.1 | 40.2 | 0.00 | 0.00 | 0.00 | 10 | 1004.6 |
| 20260503191517 | 35 | 181 | 27.4 | 33.8 | 0.00 | 0.00 | 0.00 | 10 | 1004.6 |
| 20260503190055 | 35 | 221 | 6.4 | 24.1 | 0.00 | 0.00 | 0.00 | 12 | 1005.0 |
| 20260503184551 | 35 | 126 | 8.0 | 20.9 | 0.00 | 0.00 | 0.00 | 12 | 1005.2 |
| 20260503183031 | 34 | 130 | 14.5 | 22.5 | 0.00 | 0.00 | 0.00 | 12 | 1005.7 |
| 20260503181526 | 33 | 86 | 8.0 | 20.9 | 0.00 | 0.00 | 0.00 | 13 | 1005.8 |
| 20260503180004 | 33 | 132 | 3.2 | 14.5 | 0.00 | 0.00 | 0.00 | 12 | 1006.1 |
| 20260503174602 | 33 | 125 | 6.4 | 12.9 | 0.00 | 0.00 | 0.00 | 12 | 1006.2 |
| 20260503173039 | 32 | 111 | 8.0 | 12.9 | 0.00 | 0.00 | 0.00 | 12 | 1006.1 |
| 20260503171544 | 32 | 128 | 4.8 | 14.5 | 0.00 | 0.00 | 0.00 | 13 | 1006.2 |
| 20260503081538 | 29 | 283 | 9.7 | 19.3 | 0.00 | 0.00 | 0.00 | 11 | 1005.6 |
| 20260503071502 | 29 | 317 | 11.3 | 20.9 | 0.00 | 0.00 | 0.00 | 12 | 1005.9 |
| 20260503060130 | 30 | 279 | 14.5 | 22.5 | 0.00 | 0.00 | 0.00 | 12 | 1006.5 |
| 20260503054601 | 30 | 321 | 14.5 | 22.5 | 0.00 | 0.00 | 0.00 | 13 | 1006.4 |
| 20260503053057 | 30 | 317 | 14.5 | 25.7 | 0.00 | 0.00 | 0.00 | 13 | 1006.2 |
| 20260503051538 | 30 | 306 | 16.1 | 29.0 | 0.00 | 0.00 | 0.00 | 13 | 1006.0 |
| 20260503050041 | 30 | 296 | 16.1 | 27.4 | 0.00 | 0.00 | 0.00 | 13 | 1006.0 |
| 20260503044521 | 30 | 294 | 16.1 | 24.1 | 0.00 | 0.00 | 0.00 | 14 | 1005.9 |
| 20260503043020 | 30 | 314 | 14.5 | 27.4 | 0.00 | 0.00 | 0.00 | 14 | 1005.7 |
| 20260503041502 | 31 | 303 | 8.0 | 16.1 | 0.00 | 0.00 | 0.00 | 13 | 1005.6 |
| 20260503040121 | 31 | 290 | 9.7 | 17.7 | 0.00 | 0.00 | 0.00 | 14 | 1005.7 |
| 20260503034543 | 31 | 279 | 9.7 | 17.7 | 0.00 | 0.00 | 0.00 | 15 | 1005.4 |
| 20260503033042 | 31 | 281 | 9.7 | 19.3 | 0.00 | 0.00 | 0.00 | 16 | 1005.4 |